x

Western Caribbean - 195 Nm Wsw Of Negril Jamiaca (42057) Wave Buoy

11:50 - Wed 28th Jan 2015 All times are UTC.

  • Sig Wave height 6.6ft
  • Swell Direction
  • Peak Period 7s
  • Average Period 6s
  • Wind
    22mph, 27mph gusts
  • Sea Temp 81°f
  • Aire Temp 78°f
  • Sea Pressure 1015.2mb

More Historic Weather Station data

Upgrade to MSW Pro to gain access to the past 30 days of data for over 8000 Wavebouys and Weather Stations around the globe.

Join Pro

Comparision Forecast

View Surf forecast
   
mié 01/28 11:50 6.5ft 7s 6s 22 27 mph 1015.2mb 81f 78f
10:50 6ft 6s 6s 22 27 mph 1014.7mb 81f 78f
9:50 6ft 7s 6s 22 27 mph 1014.4mb 81f 78f
8:50 6ft 7s 5s 22 29 mph 1014.5mb 81f 78f
7:50 6ft 8s 6s 22 27 mph 1014.9mb 81f 78f
6:50 6ft 7s 6s 18 25 mph 1015.6mb 81f 78f
5:50 6ft 7s 6s 18 25 mph 1016.6mb 81f 78f
4:50 5.5ft 8s 6s 20 22 mph 1017.4mb 81f 78f
3:50 6ft 7s 6s 18 20 mph 1018mb 81f 77f
2:50 6ft 7s 6s 20 25 mph 1017.9mb 81f 77f
1:50 6ft 7s 6s 20 25 mph 1017.7mb 81f 77f
12:50 7ft 8s 6s 20 25 mph 1016.9mb 81f 77f
11:50 6.5ft 7s 6s 20 25 mph 1016.5mb 81f 77f
10:50 7ft 7s 6s 20 25 mph 1016.2mb 81f 77f
9:50 7ft 8s 6s 20 25 mph 1015.8mb 81f 77f
8:50 6.5ft 7s 6s 20 27 mph 1015.5mb 81f 78f
7:50 6.5ft 7s 6s 20 25 mph 1015.6mb 81f 77f
6:50 6ft 7s 6s 20 25 mph 1015.9mb 81f 78f
5:50 6ft 7s 6s 20 27 mph 1016.1mb 81f 78f
4:50 6ft 7s 6s 20 25 mph 1016.7mb 81f 78f
3:50 6.5ft 7s 6s 22 27 mph 1017mb 81f 78f
2:50 6ft 6s 5s 20 25 mph 1017.1mb 81f 78f
1:50 6ft 7s 5s 20 25 mph 1016.9mb 81f 78f
12:50 5ft 7s 5s 22 29 mph 1016.3mb 81f 78f
mar 01/27 11:50 5ft 7s 5s 22 25 mph 1015.7mb 81f 78f
10:50 4.5ft 6s 5s 18 22 mph 1015.1mb 81f 79f
9:50 4.5ft 7s 5s 16 18 mph 1014.7mb 81f 79f
8:50 4.5ft 7s 5s 16 18 mph 1014.6mb 81f 79f
7:50 5ft 6s 5s 16 20 mph 1014.7mb 81f 79f
6:50 5ft 6s 5s 16 18 mph 1015.4mb 81f 79f
5:50 5ft 6s 5s 16 20 mph 1016.3mb 81f 79f
4:50 5ft 7s 5s 20 22 mph 1017mb 81f 79f
3:50 5ft 7s 5s 18 22 mph 1017.4mb 81f 79f
2:50 5ft 6s 5s 18 20 mph 1017.3mb 81f 79f
1:50 5ft 6s 5s 18 22 mph 1016.9mb 81f 79f
12:50 5.5ft 7s 5s 18 22 mph 1016.5mb 81f 79f
11:50 5ft 7s 5s 20 25 mph 1015.9mb 81f 79f
10:50 5.5ft 7s 5s 18 25 mph 1015.5mb 81f 77f
9:50 6ft 7s 6s 18 25 mph 1015mb 81f 79f
8:50 6ft 7s 5s 18 20 mph 1015mb 81f 79f
7:50 6ft 7s 5s 18 22 mph 1014.9mb 81f 78f
6:50 6ft 6s 6s 20 22 mph 1015.2mb 81f 78f
5:50 5ft 6s 5s 20 25 mph 1015.8mb 81f 79f
4:50 5ft 5s 5s 20 25 mph 1016.1mb 81f 78f
3:50 4.5ft 7s 5s 22 27 mph 1016.2mb 81f 78f
2:50 3.5ft 8s 5s 20 25 mph 1016mb 81f 79f
1:50 3.5ft 6s 5s 16 18 mph 1015.9mb 82f 79f
12:50 3.5ft 6s 5s 13 16 mph 1015.3mb 82f 80f
lun 01/26 11:50 3.5ft 7s 5s 11 13 mph 1014.8mb 82f 80f
10:50 3.5ft 10s 6s 11 13 mph 1014.5mb 82f 80f
9:50 3ft 8s 5s 11
mph
1014.3mb 82f 80f
8:50 3.5ft 6s 5s 9 11 mph 1014.2mb 82f 80f
7:50 3.5ft 7s 5s 9 11 mph 1014.4mb 82f 80f
6:50 3.5ft 7s 5s 9 11 mph 1014.9mb 82f 80f
5:50 3.5ft 7s 5s 11 13 mph 1015.9mb 82f 80f
4:50 4ft 7s 6s 11 13 mph 1016.6mb 82f 80f
3:50 4ft 7s 6s 11 13 mph 1017.3mb 82f 80f
2:50 4.5ft 7s 5s 11 13 mph 1017.3mb 82f 80f
1:50 4.5ft 11s 6s 11 13 mph 1016.7mb 82f 80f
12:50 4.5ft 11s 6s 13 16 mph 1015.9mb 81f 80f
11:50 4.5ft 7s 6s 13 16 mph 1015.2mb 82f 80f
10:50 4.5ft 11s 6s 11 13 mph 1014.6mb 81f 80f
9:50 4ft 7s 6s 9 11 mph 1014.3mb 81f 79f
8:50 4ft 11s 6s 9 11 mph 1014mb 82f 80f
7:50 4ft 8s 6s 9 13 mph 1013.8mb 82f 80f
6:50 4ft 8s 6s 9 11 mph 1014.1mb 82f 80f
5:50 4.5ft 8s 6s 9 13 mph 1014.4mb 82f 80f
4:50 4.5ft 10s 6s 11 13 mph 1014.8mb 82f 80f
3:50 4.5ft 11s 6s 11 16 mph 1015.3mb 82f 80f
2:50 4.5ft 10s 7s 9 11 mph 1015.4mb 82f 80f
1:50 4.5ft 8s 6s 11
mph
1014.7mb 82f 80f
12:50 4ft 9s 6s 11 13 mph 1014.2mb 82f 80f
dom 01/25 11:50 4ft 8s 6s 11 13 mph 1013.4mb 82f 80f
10:50 3.5ft 9s 5s 13 16 mph 1013mb 82f 80f
9:50 3.5ft 9s 6s 13 16 mph 1012.8mb 82f 80f
8:50 3.5ft 9s 5s 13 16 mph 1013mb 82f 80f
7:50 2.5ft 9s 4s 13 16 mph 1013.3mb 82f 80f
6:50 2.5ft 7s 4s 13 16 mph 1013.9mb 82f 80f
5:50 2.5ft 7s 4s 13 16 mph 1014.5mb 82f 80f
4:50 2.5ft 7s 4s 13 16 mph 1015.3mb 82f 80f
3:50 2.5ft 7s 4s 11 13 mph 1015.9mb 82f 80f
2:50 2ft 7s 4s 11 16 mph 1015.9mb 82f 80f
1:50 2.5ft 7s 4s 11 16 mph 1015.4mb 82f 80f
12:50 2ft 6s 5s 11 13 mph 1014.9mb 82f 80f
11:50 2ft 8s 5s 11 13 mph 1014.5mb 82f 80f
10:50 2ft 7s 5s 9 11 mph 1014mb 82f 79f
9:50 2ft 7s 5s 9 11 mph 1013.6mb 82f 79f
8:50 2.5ft 7s 5s 9 11 mph 1013.4mb 82f 79f
7:50 2ft 6s 5s 7 9 mph 1013.8mb 82f 79f
6:50 2.5ft 7s 5s 7 9 mph 1014.3mb 82f 80f
5:50 2.5ft 7s 5s 7 9 mph 1014.7mb 82f 80f
4:50 2.5ft 7s 5s 7 9 mph 1015.3mb 82f 80f
3:50 2.5ft 7s 5s 9
mph
1015.7mb 82f 80f
2:50 2ft 6s 5s 9 11 mph 1015.9mb 82f 80f
1:50 2.5ft 7s 5s 9 11 mph 1015.7mb 82f 80f